ICEYE-X12 (48914 NORAD) Tracking and Keplerian Element Data

This shows tracking and keplerian element data for the satellite.

Feedback or suggestion? Click here.




ElementValue
Catalog48914
NameICEYE-X12
Epoch Orbit1396
Epoch Day269.18794248
Epoch Year2021
RAAN36.7078
Inclination97.5238
Eccentricity0.0010642
Argument of Perigee291.4326
Mean Anonmoly189.4471
Mean Motion15.12916762
Decay Rate1.594E-05
L11 48914U 21059AM 21269.18794248 .00001594 00000-0 94111-4 0 9995
L22 48914 97.5238 36.7078 0010642 291.4326 189.4471 15.12916762 13966

Live tracking and technical data element details for ICEYE-X12 (NORAD 48914). ICEYE-X12 can be tracked NOW for your location showing map with azimuth and elevation plus other details from your city location.

Track the satellite on the map from your city or location and see movement details for azimuth, elevation, latitude, longitude, range, height, and movement on the map or in text.







IsCatalogInMostPopularTable: catalog: 48914, numindb: 16
Update: records affected: 1



GetName: 48914 ICEYE-X12

Hit Count: updated at: Sun, 26 Sep 2021 16:54:36 GMT